[[{"header":{"parameterUnit":"m.s-1","parameterCategory":1,"la1":30.2991,"la2":30.254,"lo1":-89.0895,"lo2":-89.0444,"dy":0.0017,"dx":0.0017,"nx":28,"ny":28,"refTime":"2024-03-30T21:00:00:Z","depth":0,"parameterNumber":2,"parameterNumberName":"U-component_of_WINDS"},"data":[0,0,0,0,0,0,0,0,0,0,0,0,0,0,0,0,0,0,0,0,0,0,0,0,0,0,0,0,0,0,0,0,0,0,0,0,0,0,0,0,0,0,0,0,0,0,0,0,0,0,0,0,0,0,0,0,0,0,-3.4884,-3.4884,0,-3.4886,-3.4886,-3.4886,-3.4804,-3.4802,-3.4799,-3.4797,-3.4799,-3.4801,-3.4803,0,0,0,0,0,0,0,0,0,0,0,0,0,-3.4809,-3.481,-3.4884,-3.4884,-3.4884,-3.4886,-3.4886,-3.4886,-3.4804,-3.4801,-3.4799,-3.4796,-3.4798,-3.48,-3.4803,0,0,0,0,0,0,0,0,0,0,0,0,0,-3.4829,-3.4811,-3.4884,-3.4843,-3.484,-3.4886,-3.4886,-3.4886,-3.4805,-3.4801,-3.4798,-3.4795,-3.4797,-3.48,-3.4803,-3.4888,0,0,-3.4813,-3.4814,0,0,0,0,0,0,0,0,-3.4828,-3.4832,-3.4849,-3.4846,-3.4842,-3.4841,-3.486,-3.4887,-3.4806,-3.4818,-3.4797,-3.4793,-3.4815,-3.4817,-3.4824,-3.4888,-3.4888,-3.4813,-3.4815,-3.4816,-3.4817,0,0,0,0,0,0,0,-3.4827,-3.4831,-3.4885,-3.485,-3.4845,-3.4825,-3.4824,-3.4864,-3.4835,-3.4817,-3.4811,-3.4812,-3.4813,-3.4822,-3.4824,-3.4888,-3.4813,-3.4816,-3.4817,-3.4819,-3.5021,-3.5024,0,0,0,0,0,0,-3.4831,-3.4831,-3.4885,-3.4885,-3.4827,-3.4829,-3.4828,-3.4845,-3.4834,-3.483,-3.4815,-3.4808,-3.4818,-3.482,-3.4823,-3.4921,-3.4816,-3.4819,-3.4821,-3.5017,-3.5022,-3.5025,0,0,0,0,0,0,-3.483,-3.4837,-3.4884,-3.4856,-3.4861,-3.4834,-3.4853,-3.4847,-3.4855,-3.4833,-3.4827,-3.4829,-3.4815,-3.4819,-3.4872,-3.492,-3.482,-3.4823,-3.5013,-3.5019,-3.5023,-3.5118,0,0,0,0,0,0,-3.4828,-3.4837,-3.4869,-3.4858,-3.4863,-3.4934,-3.4856,-3.4849,-3.4861,-3.4852,-3.4845,-3.4841,-3.4813,-3.4868,-3.4876,-3.4922,-3.4826,-3.5009,-3.5016,-3.5022,-3.511,-3.5125,-3.5139,0,0,0,0,0,-3.4825,-3.4895,-3.4871,-3.4877,-3.4902,-3.4937,-3.4939,-3.4907,-3.4865,-3.4897,-3.4883,-3.4841,-3.4914,-3.4874,-3.4882,-3.493,-3.5006,-3.5014,-3.5021,-3.5104,-3.5122,-3.5138,0,0,0,0,0,0,-3.4911,-3.4893,-3.4865,-3.4933,-3.4937,-3.4923,-3.4961,-3.4928,-3.4943,-3.4934,-3.4893,-3.4892,-3.4952,-3.4947,-3.4903,-3.5012,-3.4952,-3.4962,-3.5013,-3.503,-3.5044,-3.5043,-3.4828,0,0,0,0,0,-3.4939,-3.4969,-3.495,-3.5012,-3.5016,-3.4989,-3.5003,-3.4977,-3.4979,-3.498,-3.497,-3.4974,-3.4997,-3.5014,-3.5034,-3.511,-3.5106,-3.5147,-3.5161,-3.5173,-3.5181,-3.522,-3.5238,-3.5051,-3.5051,-3.5051,0,0,-3.4994,-3.4988,-3.5009,-3.5029,-3.5029,-3.5061,-3.499,-3.5027,-3.505,-3.4986,-3.5035,-3.5028,-3.503,-3.5094,-3.5122,-3.5092,-3.5233,-3.5183,-3.5193,-3.5194,-3.523,-3.5248,-3.5263,-3.5057,-3.5056,-3.5055,0,0,-3.5111,-3.511,-3.5161,-3.5163,-3.5164,-3.5146,-3.5159,-3.5149,-3.5142,-3.5192,-3.5144,-3.5171,-3.5213,-3.5216,-3.5222,-3.5343,-3.5304,-3.5351,-3.5424,-3.5463,-3.5477,-3.549,-3.5532,-3.5547,-3.536,-3.536,-3.536,0,-3.518,-3.5226,-3.5191,-3.5231,-3.5241,-3.5186,-3.5237,-3.524,-3.5248,-3.5256,-3.5223,-3.5274,-3.5271,-3.5335,-3.5365,-3.5373,-3.5385,-3.535,-3.5478,-3.5491,-3.5502,-3.5541,-3.5557,-3.5365,-3.5365,-3.5364,-3.5364,0,-3.531,-3.5343,-3.5384,-3.5394,-3.5408,-3.5454,-3.5426,-3.5445,-3.5419,-3.5405,-3.5455,-3.545,-3.5469,-3.5483,-3.5457,-3.5543,-3.5524,-3.5485,-3.5424,-3.5526,-3.5562,-3.5577,-3.5373,-3.5371,-3.537,-3.5368,0,0,-3.5479,-3.547,-3.5486,-3.5489,-3.5487,-3.5512,-3.5555,-3.5573,-3.559,-3.5599,-3.5633,-3.567,-3.5634,-3.5642,-3.5617,-3.5651,-3.5745,-3.5608,-3.5607,-3.5632,-3.5839,-3.5867,-3.5885,-3.5721,-3.5724,-3.5726,-3.5838,0,-3.5592,-3.5665,-3.5635,-3.571,-3.574,-3.5688,-3.5726,-3.5729,-3.5717,-3.574,-3.5727,-3.5754,-3.5705,-3.5709,-3.5741,-3.5727,-3.5786,-3.5719,-3.5751,-3.5753,-3.5751,-3.5904,-3.5933,-3.6039,-3.5852,-3.5854,-3.5856,0,-3.5732,-3.5746,-3.5825,-3.5818,-3.5829,-3.5863,-3.5878,-3.5901,-3.5903,-3.5892,-3.5902,-3.587,-3.5911,-3.5853,-3.5909,-3.5864,-3.5876,-3.5872,-3.5875,-3.5875,-3.5809,-3.5906,-3.6072,-3.6087,-3.5878,-3.5876,-3.5875,0,-3.5846,-3.5885,-3.5936,-3.5941,-3.5935,-3.596,-3.5959,-3.5958,-3.5971,-3.5984,-3.5992,-3.601,-3.602,-3.6034,-3.6007,-3.5967,-3.6067,-3.6006,-3.6058,-3.6059,-3.6079,-3.6078,-3.6248,-3.6091,-3.6091,-3.609,-3.609,0,-3.5974,-3.6023,-3.5987,-3.6019,-3.6073,-3.6039,-3.6094,-3.6086,-3.6086,-3.6115,-3.6073,-3.6101,-3.6065,-3.609,-3.6069,-3.6118,-3.6123,-3.6115,-3.6108,-3.6117,-3.6118,-3.6123,-3.6114,-3.6094,-3.6094,-3.6093,-3.6092,0,-3.6109,-3.6087,-3.614,-3.613,-3.6129,-3.6169,-3.616,-3.6189,-3.6175,-3.6212,-3.6219,-3.6196,-3.6223,-3.6199,-3.6225,-3.6211,-3.6276,-3.626,-3.6275,-3.6269,-3.6322,-3.6317,-3.6499,-3.652,-3.6352,-3.6354,-3.6355,0,-3.619,-3.6227,-3.6222,-3.6238,-3.6239,-3.6267,-3.628,-3.6249,-3.6265,-3.6271,-3.6299,-3.6322,-3.6339,-3.6384,-3.637,-3.639,-3.6373,-3.6435,-3.6375,-3.6383,-3.6371,-3.6369,-3.6372,-3.6447,-3.6449,-3.645,-3.6452,0,-3.6337,-3.6325,-3.6346,-3.6364,-3.6381,-3.6393,-3.6402,-3.6418,-3.6386,-3.6406,-3.6433,-3.6447,-3.6473,-3.6497,-3.6512,-3.651,-3.6476,-3.6471,-3.6484,-3.6492,-3.6499,-3.6494,-3.6306,-3.6467,-3.6465,-3.6464,-3.6463,-3.6463,-3.6446,-3.6477,-3.6477,-3.6502,-3.6506,-3.6516,-3.6542,-3.6532,-3.6554,-3.6573,-3.6554,-3.6587,-3.6589,-3.6606,-3.6608,-3.6633,-3.6607,-3.6626,-3.663,-3.6635,-3.6641,-3.6497,-3.6636,-3.6636,-3.6635,-3.6635,-3.6635,0,-3.6589,-3.6588,-3.6611,-3.6625,-3.6645,-3.6613,-3.6621,-3.6639,-3.6669,-3.6674,-3.6692,-3.6723,-3.6746,-3.6735,-3.6754,-3.6777,-3.6761,-3.6783,-3.678,-3.678,-3.6665,-3.6651,-3.6795,-3.6795,-3.6795,-3.6795,-3.6795,-3.6795,-3.6666,-3.6715,-3.6703,-3.6754,-3.6752,-3.6784,-3.6791,-3.68,-3.6804,-3.6841,-3.686,-3.6852,-3.6851,-3.687,-3.689,-3.6886,-3.6894,-3.6921,-3.6911,-3.6804,-3.6788,-3.6773,-3.6759,-3.6924,-3.6924,-3.7024,-3.7025,-3.7025]},{"header":{"parameterUnit":"m.s-1","parameterCategory":1,"la1":30.2991,"la2":30.254,"lo1":-89.0895,"lo2":-89.0444,"dy":0.0017,"dx":0.0017,"nx":28,"ny":28,"refTime":"2024-03-30T21:00:00:Z","depth":0,"parameterNumber":3,"parameterNumberName":"V-component_of_WINDS"},"data":[0,0,0,0,0,0,0,0,0,0,0,0,0,0,0,0,0,0,0,0,0,0,0,0,0,0,0,0,0,0,0,0,0,0,0,0,0,0,0,0,0,0,0,0,0,0,0,0,0,0,0,0,0,0,0,0,0,0,2.1539,2.1538,0,2.1455,2.1454,2.1453,2.1448,2.1449,2.145,2.1451,2.136,2.1357,2.1354,0,0,0,0,0,0,0,0,0,0,0,0,0,2.169,2.1688,2.1539,2.1538,2.1537,2.1455,2.1454,2.1453,2.1448,2.1449,2.145,2.1452,2.1361,2.1357,2.1353,0,0,0,0,0,0,0,0,0,0,0,0,0,2.1617,2.1687,2.1539,2.1525,2.1523,2.1456,2.1454,2.1453,2.1448,2.1449,2.1451,2.1452,2.1363,2.1358,2.1353,2.1293,0,0,2.1338,2.1335,0,0,0,0,0,0,0,0,2.1622,2.1612,2.1528,2.1525,2.1523,2.1464,2.1474,2.1399,2.1448,2.1476,2.1451,2.1453,2.1393,2.1386,2.1367,2.1289,2.1285,2.1337,2.1334,2.1332,2.1331,0,0,0,0,0,0,0,2.1627,2.1615,2.1506,2.1527,2.1524,2.1521,2.1512,2.146,2.1427,2.1474,2.1473,2.1464,2.1392,2.1371,2.1364,2.1283,2.1337,2.1333,2.133,2.1328,2.1153,2.1152,0,0,0,0,0,0,2.1635,2.162,2.1508,2.1503,2.1577,2.1517,2.1507,2.1481,2.1428,2.1421,2.1462,2.1464,2.1379,2.137,2.1361,2.1288,2.1332,2.1327,2.1324,2.1155,2.1153,2.1151,0,0,0,0,0,0,2.1638,2.1625,2.1512,2.1561,2.1547,2.1513,2.1484,2.1479,2.1458,2.1419,2.1413,2.1448,2.138,2.1368,2.1311,2.1285,2.1325,2.1321,2.1157,2.1154,2.1152,2.1142,0,0,0,0,0,0,2.1643,2.1626,2.1604,2.1561,2.1544,2.1463,2.1482,2.1476,2.145,2.1451,2.1404,2.1397,2.138,2.1318,2.1306,2.1279,2.1317,2.1159,2.1156,2.1153,2.1144,2.1139,2.1135,0,0,0,0,0,2.1648,2.1603,2.1603,2.1589,2.1516,2.1462,2.1452,2.1435,2.1448,2.1425,2.1401,2.1399,2.129,2.1312,2.1298,2.127,2.116,2.1157,2.1153,2.1146,2.114,2.1135,0,0,0,0,0,0,2.1641,2.1597,2.1596,2.1536,2.1503,2.1461,2.1431,2.1429,2.139,2.1392,2.1371,2.136,2.1303,2.1281,2.1306,2.121,2.1227,2.122,2.1226,2.122,2.1216,2.1222,2.1312,0,0,0,0,0,2.1634,2.1595,2.1558,2.1508,2.1492,2.1465,2.144,2.1431,2.1395,2.138,2.1351,2.1315,2.1273,2.1245,2.1204,2.1141,2.1131,2.1115,2.111,2.1107,2.1101,2.1067,2.1059,2.1139,2.1139,2.1139,0,0,2.1615,2.1586,2.1563,2.1506,2.1479,2.1439,2.1453,2.1409,2.1379,2.1373,2.1317,2.1295,2.1253,2.1193,2.1165,2.1173,2.1077,2.1102,2.11,2.1095,2.1062,2.1055,2.1048,2.1137,2.1137,2.1137,0,0,2.1562,2.1537,2.1493,2.1467,2.1427,2.141,2.14,2.1359,2.1344,2.1289,2.1284,2.1247,2.1175,2.1146,2.1121,2.106,2.1057,2.1047,2.1023,2.099,2.0983,2.0978,2.0956,2.0948,2.1042,2.1042,2.1042,0,2.1544,2.1485,2.147,2.1428,2.1403,2.1399,2.1354,2.1329,2.1277,2.1259,2.1269,2.1179,2.1151,2.1084,2.107,2.105,2.1037,2.1052,2.0986,2.098,2.0974,2.0953,2.0945,2.1041,2.1041,2.1041,2.1041,0,2.1465,2.1424,2.1394,2.1347,2.1318,2.1275,2.1253,2.1226,2.1219,2.12,2.1144,2.111,2.1063,2.1047,2.1038,2.0979,2.0985,2.0991,2.1007,2.0966,2.0946,2.0938,2.1039,2.104,2.104,2.104,0,0,2.1403,2.1351,2.134,2.1319,2.1276,2.1244,2.12,2.1156,2.1133,2.1098,2.1061,2.1001,2.1007,2.0979,2.0968,2.0939,2.0893,2.0948,2.0947,2.0939,2.0826,2.0822,2.0813,2.0892,2.089,2.0889,2.083,0,2.1346,2.127,2.1257,2.119,2.1152,2.1148,2.111,2.108,2.1061,2.1026,2.1005,2.0963,2.0974,2.0957,2.0929,2.0905,2.087,2.0909,2.0855,2.0854,2.0866,2.0803,2.0798,2.0744,2.0822,2.082,2.0819,0,2.1267,2.1233,2.1164,2.1128,2.1111,2.1077,2.1037,2.1003,2.0968,2.0957,2.0928,2.092,2.0874,2.0894,2.083,2.0857,2.0835,2.082,2.0817,2.0811,2.0834,2.0794,2.0726,2.0718,2.0807,2.0808,2.0809,0,2.123,2.1166,2.1117,2.1099,2.1055,2.1032,2.1012,2.0979,2.0954,2.0918,2.0902,2.086,2.0837,2.0805,2.0786,2.0802,2.0724,2.0742,2.0712,2.0713,2.0695,2.0696,2.0621,2.0681,2.0681,2.0681,2.0682,0,2.1166,2.1124,2.1099,2.1069,2.1021,2.1006,2.0959,2.0939,2.091,2.0875,2.0869,2.0836,2.0814,2.0777,2.0762,2.0712,2.0701,2.069,2.0686,2.069,2.0692,2.0675,2.0678,2.0679,2.068,2.068,2.0681,0,2.1115,2.1098,2.1043,2.1008,2.0998,2.0964,2.0933,2.0903,2.0886,2.0842,2.0831,2.0803,2.076,2.0739,2.0684,2.0674,2.0617,2.0616,2.063,2.0628,2.06,2.0603,2.0511,2.0499,2.0567,2.0567,2.0566,0,2.1076,2.1043,2.1005,2.0983,2.0963,2.0926,2.0902,2.0886,2.086,2.0819,2.0794,2.0751,2.0716,2.0647,2.0622,2.058,2.0578,2.0549,2.0571,2.0577,2.0577,2.0579,2.0576,2.0544,2.0544,2.0543,2.0543,0,2.1007,2.1001,2.0967,2.0929,2.0901,2.087,2.084,2.0821,2.08,2.0772,2.0729,2.0702,2.0648,2.0606,2.0563,2.0542,2.0538,2.0536,2.0527,2.053,2.054,2.0534,2.0618,2.0538,2.0538,2.0539,2.0539,2.0539,2.0961,2.0933,2.0902,2.0864,2.0841,2.0813,2.0784,2.0764,2.0729,2.0685,2.0678,2.0632,2.0599,2.0542,2.0519,2.0483,2.0489,2.0476,2.0473,2.0469,2.0468,2.0547,2.0475,2.0475,2.0475,2.0475,2.0475,0,2.0892,2.0873,2.0839,2.0798,2.0769,2.0771,2.0738,2.0713,2.0673,2.0644,2.061,2.0562,2.0521,2.0493,2.0452,2.0428,2.0425,2.0417,2.0419,2.0414,2.0465,2.0477,2.042,2.042,2.042,2.042,2.042,2.042,2.0853,2.0806,2.0796,2.0737,2.0717,2.0675,2.0656,2.063,2.0607,2.0553,2.0521,2.0504,2.0474,2.0431,2.0394,2.0387,2.0371,2.0364,2.0356,2.0404,2.041,2.0415,2.0427,2.036,2.036,2.0308,2.0308,2.0307]}]]